Weather History for Dubuque, IA

Change the Weather History Date:

Monday, March 3, 2014

  Actual Average Record
Temperature  
Mean Temperature 1 °F 30 °F  
Max Temperature 12 °F 38 °F 68 °F (1983)
Min Temperature -11 °F 22 °F -11 °F (2014)
Degree Days  
Heating Degree Days 64 35  
Month to date heating degree days 186 107  
Since 1 July heating degree days 6562 5500  
Cooling Degree Days 0 0  
Month to date cooling degree days 0 0  
Year to date cooling degree days 0 0  
Moisture  
Dew Point -8 °F    
Average Humidity 62    
Maximum Humidity 73    
Minimum Humidity 50    
Precipitation  
Precipitation T in 0.07 in 0.87 in (1970)
Month to date precipitation 0.25 0.20  
Year to date precipitation 2.73 2.81  
Snow  
Snow T in 0.20 in - ()
Month to date snowfall 3.5 0.7  
Since 1 July snowfall 55.2 34.3  
Snow Depth 7.00 in    
Sea Level Pressure  
Sea Level Pressure 30.49 in    
Wind  
Wind Speed 8 mph (South)    
Max Wind Speed 16 mph    
Max Gust Speed 19 mph    
Visibility 9 miles    
Events Snow    
T = Trace of Precipitation, MM = Missing Value Source: NWS Daily Summary

Daily Weather History Graph

Daily Weather History Graph

Search for Another Location

Airport:

Trip Planner

Search our weather history database for the weather conditions in past years. The results will help you decide how hot, cold, wet, or windy it might be!

Date:

Astronomy

Mar. 03, 2014 Rise Set
Actual Time 6:34 AM CST 5:55 PM CST
Civil Twilight 6:06 AM CST 6:23 PM CST
Nautical Twilight 5:34 AM CST 6:55 PM CST
Astronomical Twilight 5:01 AM CST 7:28 PM CST
Moon 7:39 AM CST (3/3) 9:02 PM CST (3/3)
Length of Visible Light 12h 16m
Length of Day
11h 20m
Waxing Crescent, 8% of the Moon is Illuminated
Mar 3
Waxing Crescent
Mar 8
First Quarter
Mar 16
Full
Mar 23
Last Quarter
Mar 30
New

Hourly Weather History & Observations

Time (CST) Temp. Windchill Dew Point Humidity Pressure Visibility Wind Dir Wind Speed Gust Speed Precip Events Conditions
12:53 AM -8.0 °F -28.8 °F -17.0 °F 65% 30.56 in 10.0 mi North 13.8 mph - N/A   Clear
1:53 AM -8.0 °F -28.0 °F -17.0 °F 65% 30.55 in 10.0 mi North 12.7 mph - N/A   Clear
2:53 AM -8.0 °F -25.0 °F -17.0 °F 65% 30.53 in 10.0 mi North 9.2 mph - N/A   Clear
3:53 AM -9.0 °F -28.4 °F -17.0 °F 68% 30.53 in 10.0 mi North 11.5 mph - N/A   Clear
4:53 AM -9.0 °F -27.4 °F -17.0 °F 68% 30.54 in 10.0 mi NNE 10.4 mph - N/A   Clear
5:53 AM -9.0 °F -25.2 °F -17.0 °F 68% 30.55 in 10.0 mi NNE 8.1 mph - N/A   Clear
6:53 AM -9.9 °F -24.9 °F -17.0 °F 71% 30.56 in 10.0 mi North 6.9 mph - N/A   Clear
7:53 AM -6.0 °F -23.6 °F -16.1 °F 62% 30.56 in 10.0 mi NNE 10.4 mph - N/A   Clear
8:53 AM -4.0 °F -20.2 °F -14.1 °F 62% 30.58 in 10.0 mi NNE 9.2 mph - N/A   Clear
9:53 AM -0.0 °F -11.6 °F -11.9 °F 57% 30.58 in 10.0 mi NE 5.8 mph - N/A   Clear
10:53 AM 3.0 °F -4.4 °F -9.9 °F 55% 30.57 in 10.0 mi SE 3.5 mph - N/A   Clear
11:53 AM 5.0 °F -8.1 °F -8.0 °F 55% 30.56 in 10.0 mi SSW 8.1 mph - N/A   Clear
12:53 PM 7.0 °F 0.1 °F -7.1 °F 53% 30.55 in 10.0 mi South 3.5 mph - N/A   Partly Cloudy
1:53 PM 10.0 °F 1.8 °F -5.1 °F 51% 30.52 in 10.0 mi South 4.6 mph - N/A   Mostly Cloudy
2:53 PM 10.9 °F -0.8 °F -6.0 °F 47% 30.51 in 10.0 mi SW 8.1 mph - N/A   Mostly Cloudy
3:53 PM 10.9 °F 0.2 °F -5.1 °F 49% 30.49 in 10.0 mi SSW 6.9 mph - N/A   Overcast
4:53 PM 10.0 °F -0.9 °F -4.0 °F 53% 30.48 in 10.0 mi WSW 6.9 mph - N/A   Overcast
5:53 PM 10.0 °F 0.4 °F -2.9 °F 56% 30.45 in 10.0 mi South 5.8 mph - N/A   Overcast
6:53 PM 9.0 °F -5.1 °F -0.9 °F 64% 30.43 in 10.0 mi South 10.4 mph - N/A   Overcast
7:53 PM 8.1 °F -3.2 °F -2.0 °F 64% 30.42 in 10.0 mi South 6.9 mph - N/A   Scattered Clouds
8:53 PM 8.1 °F -2.0 °F -2.0 °F 64% 30.40 in 10.0 mi SSE 5.8 mph - N/A   Partly Cloudy
9:53 PM 8.1 °F -3.2 °F -0.9 °F 67% 30.40 in 10.0 mi South 6.9 mph - N/A   Overcast
10:53 PM 9.0 °F -5.1 °F 1.0 °F 70% 30.39 in 10.0 mi South 10.4 mph - N/A   Overcast
11:53 PM 9.0 °F -4.2 °F 1.0 °F 70% 30.36 in 4.0 mi SSW 9.2 mph - N/A   Haze
11:59 PM 8.1 °F -5.3 °F 1.9 °F 76% 30.29 in 1.8 mi SW 9.2 mph - 0.00 in Snow Light Snow